Location: McFarlands Corners
(41.4117°N, 81.3382°W)
Time: 01:03:54
(UTC+00:00)

Transit 4A - Pass Details

Date: 24 February 2026
Orbit: 864 x 977 km, 66.8° (Epoch: 9 March)

Event Time Altitude Azimuth Distance (km) Brightness Sun altitude
Rises 09:58:30 0° 274° (W) 3,489 - -24.9°
Reaches altitude 10° 10:02:42 10° 303° (WNW) 2,578 - -24.1°
Maximum altitude 10:05:11 13° 328° (NNW) 2,411 - -23.6°
Exits shadow 10:05:31 13° 331° (NNW) 2,417 9.9 -23.6°
Drops below altitude 10° 10:07:42 10° 353° (N) 2,615 10.2 -23.2°
Sets 10:12:03 0° 21° (NNE) 3,591 11.3 -22.4°
